Regional Weather Roundup
Issued by NWS

Home | Current Version | Previous Version | Text Only | Print | Product List | Glossary Off
Versions: 1 2 3 4 5 6 7 8 9 10 11 12 13 14 15 16 17 18 19 20 21 22 23 24 25 26 27 28 29 30 31 32 33 34 35 36 37 38 39 40 41 42 43 44 45 46 47 48 49 50

000
ASUS43 KIND 281909
RWRIN

WEATHER ROUNDUP FOR INDIANA
NATIONAL WEATHER SERVICE INDIANAPOLIS IN
300 PM EDT FRI AUG 28 2015

NOTE: "FAIR" INDICATES FEW OR NO CLOUDS BELOW 12,000 FEET WITH NO
SIGNIFICANT WEATHER AND/OR OBSTRUCTIONS TO VISIBILITY.

* - STATION DOES NOT REPORT WEATHER SUCH AS PRECIPITATION OR FOG.

+ - STATION NOT QUALITY CONTROLLED BY THE NATIONAL WEATHER SERVICE.
    USE DATA WITH CAUTION...ESPECIALLY DEWPOINT AND RELATIVE
    HUMIDITY OBSERVATIONS.

INZ001>003-010>013-019-020-282000-
NORTHWEST INDIANA

CITY           SKY/WX    TMP DP  RH WIND       PRES   REMARKS
GARY /AIRPORT/ CLOUDY    75  57  53 SW16      30.14F
KNOX *+        PTSUNNY   77  57  50 SW5       30.14S
LA PORTE +     CLOUDY    77  63  60 SW7       30.15S
MICHIGAN CITY+ CLOUDY    75  59  57 SW5       30.14F
MONTICELLO +   CLOUDY    76  60  56 S6        30.14F
RENSSELAER +   CLOUDY    77  63  61 S6        30.14F
VALPARAISO     CLOUDY    77  60  55 SW8       30.15S

$$

LMZ046-743>745-282000-
SOUTHERN LAKE MICHIGAN

STATION/POSITION TIME  TEMP    WIND        PRES    WAVE
                       AIR SEA DIR/SP/G            HT
                 (UTC) (F)     (DEG/KT/KT) (MB)    (FT)
BURNS HARBOR     1800   74     220/  7/ 11 1021.0F
MICHIGAN CITY    1800   73     210/  8/  9   N/A
5NW MICH CITY    1900   73 71  280/  2/  2   N/A     0

$$

INZ004-005-014>016-021>024-282000-
NORTH CENTRAL INDIANA

CITY           SKY/WX    TMP DP  RH WIND       PRES   REMARKS
ELKHART        CLOUDY    77  59  53 SW9       30.15F
GOSHEN         CLOUDY    78  60  53 SW9       30.15F
LOGANSPORT +   PTSUNNY   77  50  38 S6        30.16S
PERU/GRISSOM   PTSUNNY   78  59  52 VRB3      30.14F
ROCHESTER +    PTSUNNY   79  57  47 SW5       30.15F
SOUTH BEND     PTSUNNY   76  59  55 W7        30.15F
WARSAW +       CLOUDY    75  59  57 S3        30.15F

$$

INZ006>009-017-018-025>027-282000-
NORTHEAST INDIANA

CITY           SKY/WX    TMP DP  RH WIND       PRES   REMARKS
ANGOLA *+      PTSUNNY   75  66  73 VRB5      30.17S
AUBURN +       CLOUDY    77  57  50 SW5       30.17F
FORT WAYNE     CLOUDY    77  59  53 SW6       30.17F
HUNTINGTON +   CLOUDY    77  52  41 SW5       30.16F

$$

INZ028-029-035-036-043>045-051>053-282000-
WEST CENTRAL INDIANA

CITY           SKY/WX    TMP DP  RH WIND       PRES   REMARKS
CRAWFORDSVL +  PTSUNNY   74  52  45 SE5       30.15F
GREENCASTLE +  PTSUNNY   77  52  41 E5        30.16S
LAFAYETTE      CLOUDY    78  57  48 SW6       30.14F
TERRE HAUTE    PTSUNNY   80  56  43 E14       30.13F

$$

INZ030>032-037>040-046>048-054>057-064-065-282000-
CENTRAL INDIANA

CITY           SKY/WX    TMP DP  RH WIND       PRES   REMARKS
ANDERSON       MOSUNNY   77  48  36 SE6       30.17F
FRANKFORT +    CLOUDY    77  61  58 SE5       30.17F
GREENWOOD *+   PTSUNNY   77  52  41 SE6       30.16F
INDIANAPOLIS   PTSUNNY   77  54  44 VRB7      30.13F
-EAGLE CREEK   PTSUNNY   78  55  44 VRB5      30.14F
KOKOMO *+      PTSUNNY   77  59  53 S3        30.16F
MARION +       CLOUDY    77  45  32 SE3       30.17F
MT COMFORT *+  PTSUNNY   77  45  31 SE6       30.16F
SHELBYVILLE    PTSUNNY   79  56  45 E9        30.15F
ZIONSVILLE +   PTSUNNY   78  55  45 SE6       30.16F

$$

INZ033-034-041-042-049-050-058-059-282000-
EAST CENTRAL INDIANA

CITY           SKY/WX    TMP DP  RH WIND       PRES   REMARKS
MUNCIE         CLOUDY    75  55  49 S7        30.16F

$$

INZ060-061-067>069-081>083-085>088-282000-
SOUTHWEST INDIANA

CITY           SKY/WX    TMP DP  RH WIND       PRES   REMARKS
EVANSVILLE     MOSUNNY   80  56  43 VRB5      30.11F
HUNTINGBURG *+ MOSUNNY   79  57  47 SE8       30.12F
WASHINGTON +   MOSUNNY   79  50  36 SE5       30.12F

$$

INZ062-063-066-070>080-084-089>092-282000-
SOUTH CENTRAL AND SOUTHEAST INDIANA

CITY           SKY/WX    TMP DP  RH WIND       PRES   REMARKS
BLOOMINGTON    PTSUNNY   77  57  50 S10       30.15F
MADISON *+     MOSUNNY   79  54  41 CALM      30.17F
NORTH VERNON + MOSUNNY   79  55  44 CALM      30.16F
SEYMOUR +      PTSUNNY   82  57  42 S7        30.14F

$$



USA.gov is the U.S. government's official web portal to all federal, state and local government web resources and services.